Flag for U.S.A. Weather past 2 weeks in Olathe, Kansas, U.S.A.

Now
86 °F

Sunny.


Feels Like: 89 °F
Forecast: 70 / 87 °F
Wind: 7 mph from Southeast

Location: Johnson County Executive Airport

Current Time: Aug 4, 2015 at 1:43:12 PM

Latest Report: Aug 4, 2015 at 12:53 PM


Visibility: 10 mi

Pressure: 29.94 "Hg

Humidity: 55%

Dew point: 68 °F

Location of OlatheLocation

Historic Weather in Olathe — Graph

°F

Olathe temperature yesterday

Maximum temperature yesterday: 92 °F (at 2:53 PM)
Minimum temperature yesterday: 69 °F (at 6:53 AM)
Average temperature yesterday: 81 °F

Past Weeks' High & Low Weather Summary

 TemperatureHumidityPressure
High94 °F (Jul 24, 4:53 PM)100% (Jul 23, 5:53 AM)30.20 "Hg (Jul 23, 5:53 AM)
Low63 °F (Jul 22, 4:53 AM)35% (Jul 30, 12:53 PM)29.80 "Hg (Aug 2, 6:53 PM)
Average79 °F73%29.94 "Hg
* Reported Jul 20 11:53 AM — Aug 4 11:53 AM, Olathe, Weather by CustomWeather, © 2015

Note: Actual official high and low records may vary slightly from our data, if they occured in-between our weather recording intervals... More about our weather records

Advertising

Olathe weather history for previous 24 hours

 ConditionsComfort  
Time TempWeatherWind HumidityBarometerVisibility
11:53 AM
Tue, Aug 4
84 °FOvercast.6 mph57%29.96 "Hg10 mi
10:53 AM83 °FSunny.5 mph65%29.94 "Hg10 mi
9:53 AM79 °FSunny.No wind74%29.94 "Hg10 mi
8:53 AM75 °FSunny.5 mph85%29.94 "Hg10 mi
7:53 AM72 °FSunny.6 mph91%29.93 "Hg10 mi
6:53 AM71 °FClear.6 mph90%29.93 "Hg10 mi
5:53 AM71 °FClear.5 mph90%29.92 "Hg10 mi
4:53 AM71 °FClear.6 mph90%29.90 "Hg10 mi
3:53 AM72 °FClear.No wind91%29.88 "Hg10 mi
2:53 AM73 °FClear.No wind88%29.89 "Hg10 mi
1:53 AM75 °FClear.No wind85%29.90 "Hg10 mi
12:53 AM75 °FClear.No wind85%29.91 "Hg10 mi
11:53 PM
Mon, Aug 3
76 °FClear.3 mph82%29.90 "Hg10 mi
10:53 PM78 °FClear.6 mph79%29.90 "Hg10 mi
9:53 PM80 °FClear.12 mph76%29.88 "Hg10 mi
8:53 PM83 °FSunny.8 mph74%29.86 "Hg10 mi
7:53 PM85 °FSunny.7 mph70%29.85 "Hg10 mi
6:53 PM90 °FSunny.No wind47%29.85 "Hg10 mi
5:53 PM91 °FSunny.6 mph45%29.85 "Hg10 mi
4:53 PM91 °FSunny.6 mph56%29.86 "Hg10 mi
3:53 PM92 °FScattered clouds.No wind46%29.88 "Hg10 mi
2:53 PM92 °FSunny.8 mph44%29.88 "Hg10 mi
1:53 PM91 °FSunny.7 mph45%29.89 "Hg10 mi
Weather by CustomWeather, © 2015

See weather overviewHow to use our weather pages